Location: Czu?�w
(50.1404°N, 18.9919°E)
Time: 11:53:25
(UTC+00:00)

COSMO-SKYMED 1 - Pass Details

Date: 27 October 2020
Orbit: 621 x 623 km, 97.9° (Epoch: 25 November)

Event Time Altitude Azimuth Distance (km) Brightness Sun altitude
Rises 16:23:36 0° 20° (NNE) 2,917 5.7 -9.3°
Reaches altitude 10° 16:25:56 10° 28° (NNE) 2,004 4.8 -9.7°
Maximum altitude 16:30:02 39° 98° (E) 941 3.0 -10.4°
Drops below altitude 10° 16:34:05 10° 167° (SSE) 1,988 5.1 -11.0°
Sets 16:36:23 0° 175° (S) 2,889 6.0 -11.4°
